Погода в Лос-Текес

Венесуэла     10°21′21″N   67°00′19″W
темп.,
°C
ветер,
м/с
пор.,
м/с
влажн.,
%
обл.,
%
осадки,
мм/ч
давл.,
гПа
погр.,
м
18 апреля, вс
вс1823:00+20св117974 0.0 101621
02:00+19ссв11885 0.0 101420
05:00+18всв119194 0.0 101420
08:00+22в237879 0.0 1016396
11:00+28юв2445100 0.0 10161364
14:00+32юв1428100 0.0 10122263
17:00+30всв4428100 0.0 10101903
20:00+22в1169100 0.0 101424
19 апреля, пн
пн1923:00+20ссв1187100 0.0 101749
02:00+19св1194100 0.0 101525
05:00+18св1296100 0.0 101674
08:00+21всв2378100 0.0 1017407
11:00+27вюв2544100 0.0 10171351
14:00+30в2432100 0.0 10132301
17:00+29всв3435100 0.0 10111747
20:00+21вюв2374100 0.0 101575
20 апреля, вт
вт2023:00+19вюв1293100 0.0 1017121
02:00+19в1492100 0.1 1015358
05:00+19всв1394100 0.0 1016223
08:00+21в358189 0.0 1018619
11:00+27вюв3443100 0.0 10171484
14:00+30вюв34318 0.0 10132245
17:00+28в33345 0.0 10121672
20:00+20вюв11660 0.0 101520
21 апреля, ср
ср2123:00+18ссв018722 0.0 101626
02:00+17с11948 0.0 101525
05:00+17с119612 0.0 101527
08:00+21в237814 0.0 1017396
11:00+28вюв23480 0.0 10161248
14:00+31юв32327 0.1 10122560
17:00+29всв543777 0.1 10111757
20:00+21всв11688 0.1 101430
22 апреля, чт
чт2223:00+19в139027 0.0 101692
02:00+18в129371 0.0 1014216
05:00+17ссв119216 0.0 101518
08:00+22в24750 0.0 1016378
11:00+28вюв22450 0.0 10151294
14:00+32юв32291 0.0 10112757
17:00+28в354396 0.0 1010786
20:00+23в12605 0.1 101255